| time (UTC) | temp F | wind direction | speed MPH | gust MPH | rain 1hr in | rain 24hr in | rain mn in | humidity % | barometer mb |
| 20260902171548 | 66 | 0 | 0.0 | 4.0 | 0.00 | 0.00 | 0.00 | 64 | 1019.9 |
| 20260902170056 | 66 | 252 | 4.0 | 9.0 | 0.00 | 0.00 | 0.00 | 63 | 1019.9 |
| 20260902164555 | 67 | 0 | 1.0 | 8.0 | 0.00 | 0.00 | 0.00 | 63 | 1019.7 |
| 20260902163056 | 67 | 322 | 1.0 | 9.0 | 0.00 | 0.00 | 0.00 | 63 | 1019.9 |
| 20260902161553 | 67 | 254 | 2.0 | 7.0 | 0.00 | 0.00 | 0.00 | 63 | 1019.9 |
| 20260902160057 | 67 | 202 | 1.0 | 6.0 | 0.00 | 0.00 | 0.00 | 62 | 1019.8 |
| 20260902154555 | 67 | 242 | 3.0 | 7.0 | 0.00 | 0.00 | 0.00 | 60 | 1019.9 |
| 20260902153056 | 67 | 204 | 4.0 | 13.0 | 0.00 | 0.00 | 0.00 | 59 | 1020.0 |
| 20260902151556 | 68 | 281 | 3.0 | 11.0 | 0.00 | 0.00 | 0.00 | 57 | 1020.0 |
| 20260902150053 | 68 | 265 | 3.0 | 9.0 | 0.00 | 0.00 | 0.00 | 59 | 1020.1 |
| 20260902144550 | 68 | 238 | 3.0 | 12.0 | 0.00 | 0.00 | 0.00 | 58 | 1020.1 |
| 20260902143046 | 68 | 259 | 4.0 | 12.0 | 0.00 | 0.00 | 0.00 | 60 | 1020.2 |
| 20260902141552 | 67 | 279 | 4.0 | 8.0 | 0.00 | 0.00 | 0.00 | 60 | 1020.3 |
| 20260902140054 | 67 | 315 | 3.0 | 10.0 | 0.00 | 0.00 | 0.00 | 61 | 1020.2 |
| 20260902134548 | 68 | 331 | 4.0 | 10.0 | 0.00 | 0.07 | 0.00 | 62 | 1020.2 |
| 20260902133054 | 68 | 236 | 2.0 | 8.0 | 0.00 | 0.07 | 0.00 | 64 | 1020.1 |
| 20260902131554 | 68 | 276 | 5.0 | 14.0 | 0.00 | 0.07 | 0.00 | 64 | 1020.2 |
| 20260902130059 | 68 | 0 | 5.0 | 10.0 | 0.00 | 0.07 | 0.00 | 63 | 1020.2 |
| 20260902124548 | 68 | 265 | 5.0 | 10.0 | 0.00 | 0.07 | 0.00 | 61 | 1020.2 |
| 20260902123054 | 67 | 240 | 5.0 | 17.0 | 0.00 | 0.07 | 0.00 | 61 | 1020.1 |
| 20260902121604 | 67 | 26 | 4.0 | 12.0 | 0.00 | 0.07 | 0.00 | 61 | 1020.1 |
| 20260902120052 | 67 | 257 | 4.0 | 13.0 | 0.00 | 0.07 | 0.00 | 65 | 1020.2 |
| 20260902114546 | 67 | 21 | 4.0 | 9.0 | 0.00 | 0.11 | 0.00 | 67 | 1020.3 |
| 20260902113047 | 67 | 262 | 2.0 | 10.0 | 0.00 | 0.11 | 0.00 | 68 | 1020.4 |
| 20260902111554 | 66 | 250 | 5.0 | 9.0 | 0.00 | 0.11 | 0.00 | 69 | 1020.4 |
| 20260902110056 | 66 | 260 | 5.0 | 11.0 | 0.00 | 0.11 | 0.00 | 71 | 1020.4 |
| 20260902104553 | 66 | 296 | 4.0 | 10.0 | 0.00 | 0.11 | 0.00 | 71 | 1020.5 |
| 20260902103045 | 66 | 238 | 3.0 | 11.0 | 0.00 | 0.11 | 0.00 | 75 | 1020.5 |
| 20260902101600 | 66 | 244 | 4.0 | 13.0 | 0.00 | 0.11 | 0.00 | 74 | 1020.7 |
| 20260902100105 | 64 | 265 | 2.0 | 7.0 | 0.00 | 0.11 | 0.00 | 77 | 1020.6 |
| 20260902094546 | 65 | 272 | 2.0 | 9.0 | 0.00 | 0.11 | 0.00 | 77 | 1020.6 |
| 20260902093046 | 64 | 239 | 3.0 | 9.0 | 0.00 | 0.11 | 0.00 | 80 | 1020.6 |
| 20260902091549 | 62 | 0 | 1.0 | 6.0 | 0.00 | 0.11 | 0.00 | 83 | 1020.7 |
| 20260902090045 | 62 | 278 | 3.0 | 7.0 | 0.00 | 0.11 | 0.00 | 82 | 1020.6 |
| 20260902084601 | 60 | 260 | 0.0 | 6.0 | 0.00 | 0.11 | 0.00 | 91 | 1020.6 |
| 20260902083050 | 58 | 0 | 0.0 | 0.0 | 0.00 | 0.11 | 0.00 | 94 | 1020.6 |
| 20260902081559 | 57 | 0 | 0.0 | 1.0 | 0.00 | 0.11 | 0.00 | 94 | 1020.8 |
| 20260902080044 | 56 | 0 | 0.0 | 1.0 | 0.00 | 0.11 | 0.00 | 95 | 1020.7 |
| 20260902074543 | 56 | 0 | 0.0 | 1.0 | 0.00 | 0.11 | 0.00 | 96 | 1020.6 |
| 20260902073055 | 55 | 0 | 0.0 | 3.0 | 0.00 | 0.11 | 0.00 | 96 | 1020.6 |
| 20260902071544 | 54 | 0 | 0.0 | 4.0 | 0.00 | 0.11 | 0.00 | 96 | 1020.5 |
| 20260902070057 | 53 | 0 | 0.0 | 1.0 | 0.00 | 0.11 | 0.00 | 96 | 1020.5 |
| 20260902064549 | 53 | 0 | 0.0 | 1.0 | 0.00 | 0.11 | 0.00 | 96 | 1020.4 |
| 20260902063052 | 53 | 0 | 0.0 | 0.0 | 0.00 | 0.11 | 0.00 | 96 | 1020.4 |
| 20260902061606 | 52 | 0 | 0.0 | 0.0 | 0.00 | 0.11 | 0.00 | 96 | 1020.5 |
| 20260902060044 | 52 | 0 | 0.0 | 1.0 | 0.00 | 0.11 | 0.00 | 96 | 1020.4 |
| 20260902054553 | 52 | 202 | 0.0 | 3.0 | 0.00 | 0.11 | 0.00 | 96 | 1020.5 |
| 20260902053050 | 52 | 0 | 0.0 | 3.0 | 0.00 | 0.11 | 0.00 | 96 | 1020.4 |
| 20260902051545 | 52 | 0 | 0.0 | 2.0 | 0.00 | 0.11 | 0.00 | 96 | 1020.4 |
| 20260902050110 | 52 | 200 | 0.0 | 1.0 | 0.00 | 0.11 | 0.00 | 96 | 1020.3 |
| 20260902044554 | 51 | 0 | 0.0 | 3.0 | 0.00 | 0.11 | 0.00 | 96 | 1020.4 |
| 20260902043051 | 51 | 0 | 0.0 | 2.0 | 0.00 | 0.11 | 0.00 | 96 | 1020.4 |
| 20260902041545 | 51 | 0 | 0.0 | 3.0 | 0.00 | 0.11 | 0.00 | 96 | 1020.3 |
| 20260902040056 | 51 | 0 | 0.0 | 0.0 | 0.00 | 0.11 | 0.00 | 96 | 1020.4 |
| 20260902034556 | 51 | 198 | 0.0 | 3.0 | 0.00 | 0.11 | 0.00 | 97 | 1020.7 |
| 20260902033053 | 50 | 0 | 0.0 | 4.0 | 0.00 | 0.11 | 0.00 | 96 | 1020.6 |
| 20260902031602 | 50 | 0 | 0.0 | 0.0 | 0.00 | 0.11 | 0.00 | 96 | 1020.6 |
| 20260902030051 | 50 | 0 | 0.0 | 1.0 | 0.00 | 0.11 | 0.00 | 96 | 1020.7 |
| 20260902024553 | 50 | 0 | 0.0 | 0.0 | 0.00 | 0.11 | 0.00 | 96 | 1020.4 |
| 20260902023052 | 50 | 0 | 0.0 | 0.0 | 0.00 | 0.11 | 0.00 | 96 | 1020.7 |
| 20260902021544 | 50 | 0 | 0.0 | 0.0 | 0.00 | 0.11 | 0.00 | 96 | 1020.6 |
| 20260902020054 | 49 | 0 | 0.0 | 0.0 | 0.00 | 0.11 | 0.00 | 96 | 1020.9 |
| 20260902014553 | 49 | 0 | 0.0 | 0.0 | 0.00 | 0.11 | 0.00 | 96 | 1020.9 |
| 20260902013049 | 49 | 0 | 0.0 | 0.0 | 0.00 | 0.11 | 0.00 | 96 | 1020.9 |
| 20260902011550 | 49 | 0 | 0.0 | 1.0 | 0.00 | 0.11 | 0.00 | 95 | 1020.7 |
| 20260902010105 | 49 | 0 | 0.0 | 0.0 | 0.00 | 0.11 | 0.00 | 95 | 1020.6 |
| 20260902004554 | 49 | 0 | 0.0 | 0.0 | 0.00 | 0.11 | 0.00 | 95 | 1020.6 |
| 20260902003048 | 49 | 0 | 0.0 | 0.0 | 0.00 | 0.11 | 0.00 | 95 | 1020.7 |
| 20260902001558 | 50 | 0 | 0.0 | 0.0 | 0.00 | 0.11 | 0.00 | 95 | 1020.7 |
| 20260902000051 | 49 | 0 | 0.0 | 0.0 | 0.00 | 0.11 | 0.00 | 95 | 1020.9 |
| 20260901234552 | 49 | 0 | 0.0 | 0.0 | 0.00 | 0.11 | 0.00 | 95 | 1021.1 |
| 20260901233049 | 49 | 0 | 0.0 | 0.0 | 0.00 | 0.11 | 0.00 | 95 | 1021.1 |
| 20260901231545 | 50 | 0 | 0.0 | 0.0 | 0.00 | 0.11 | 0.00 | 95 | 1021.1 |
| 20260901230053 | 50 | 0 | 0.0 | 0.0 | 0.00 | 0.11 | 0.00 | 95 | 1021.2 |
| 20260901224553 | 50 | 0 | 0.0 | 0.0 | 0.00 | 0.11 | 0.00 | 94 | 1021.3 |
| 20260901223057 | 50 | 0 | 0.0 | 0.0 | 0.00 | 0.11 | 0.00 | 94 | 1021.2 |
| 20260901221555 | 51 | 0 | 0.0 | 0.0 | 0.00 | 0.11 | 0.00 | 94 | 1021.1 |
| 20260901220052 | 51 | 0 | 0.0 | 0.0 | 0.00 | 0.11 | 0.00 | 94 | 1021.1 |
| 20260901214605 | 52 | 0 | 0.0 | 0.0 | 0.00 | 0.11 | 0.11 | 94 | 1021.1 |
| 20260901213058 | 52 | 0 | 0.0 | 0.0 | 0.00 | 0.11 | 0.11 | 93 | 1021.1 |
| 20260901211554 | 53 | 0 | 0.0 | 0.0 | 0.00 | 0.11 | 0.11 | 93 | 1021.0 |
| 20260901210111 | 53 | 0 | 0.0 | 0.0 | 0.00 | 0.11 | 0.11 | 93 | 1020.9 |
| 20260901204551 | 54 | 0 | 0.0 | 0.0 | 0.00 | 0.11 | 0.11 | 93 | 1020.9 |
| 20260901203047 | 54 | 0 | 0.0 | 0.0 | 0.00 | 0.11 | 0.11 | 92 | 1021.0 |
| 20260901201554 | 55 | 0 | 0.0 | 0.0 | 0.00 | 0.11 | 0.11 | 92 | 1020.9 |
| 20260901200101 | 55 | 0 | 0.0 | 0.0 | 0.00 | 0.11 | 0.11 | 91 | 1020.9 |
| 20260901194554 | 56 | 0 | 0.0 | 0.0 | 0.00 | 0.11 | 0.11 | 91 | 1020.9 |
| 20260901193058 | 57 | 0 | 0.0 | 0.0 | 0.00 | 0.11 | 0.11 | 91 | 1020.8 |
| 20260901191551 | 57 | 0 | 0.0 | 0.0 | 0.00 | 0.11 | 0.11 | 91 | 1020.8 |
| 20260901190054 | 58 | 0 | 0.0 | 0.0 | 0.00 | 0.11 | 0.11 | 90 | 1020.9 |
| 20260901184559 | 59 | 0 | 0.0 | 0.0 | 0.00 | 0.11 | 0.11 | 89 | 1020.8 |
| 20260901183106 | 60 | 0 | 0.0 | 0.0 | 0.00 | 0.11 | 0.11 | 88 | 1020.6 |
| 20260901181546 | 61 | 0 | 0.0 | 0.0 | 0.00 | 0.11 | 0.11 | 87 | 1020.5 |
| 20260901180045 | 62 | 0 | 0.0 | 0.0 | 0.00 | 0.11 | 0.11 | 86 | 1020.4 |
| 20260901174553 | 63 | 0 | 0.0 | 1.0 | 0.00 | 0.18 | 0.11 | 84 | 1020.2 |
| 20260901173048 | 63 | 0 | 0.0 | 3.0 | 0.00 | 0.18 | 0.11 | 80 | 1020.2 |